Location: Hermaringen
(48.5952°N, 10.2585°E)
Time: 00:15:45
(UTC+00:00)

Helios 1A Rocket - Pass Details

Date: 18 November 2025
Orbit: 440 x 452 km, 98.3° (Epoch: 05 December)

Event Time Altitude Azimuth Distance (km) Brightness Sun altitude
Exits shadow 17:14:38 25° 126° (SE) 932 3.6 -16.1°
Drops below altitude 10° 17:16:45 10° 160° (SSE) 1,573 5.1 -16.5°
Sets 17:18:57 0° 172° (S) 2,443 6.2 -16.8°
